Vertical_Velocity
0 -4 -6 -3 -3 -1 -6 -9 -5 -3 0 -2 7 3 1 7 4 7 1 13 2 2 3 3 10 -0 1 5 7 -1 1 1 2 -0 -2 -2 2 4 11 1 9 -0 1
-1 -5 -2 -4 -2 -3 -3 0 -11 -2 -3 -6 -2 -2 4 2 2 -3 1 -0 1 3 4 2 1 1 -1 -4 -1 0 -0 0 1 1 14 7 6 4 -7 -2 6 2 -0
1 -3 -2 -4 -1 -2 -2 -1 -2 -5 -2 -1 1 -1 -2 -1 2 1 1 -1 -0 1 -0 3 2 7 7 8 3 3 -1 3 -0 1 0 16 5 5 3 5 3 -2 7
-2 2 1 -3 -3 -1 -2 1 0 0 0 -1 1 -2 -2 -2 -1 -1 3 25 10 1 9 5 -2 5 0 -3 -2 1 1 5 -0 4 3 8 5 -8 -3 3 1 3 -3
-0 -1 2 0 -0 -2 -2 -2 -1 -1 -1 2 1 0 -1 -1 -1 -3 -4 -2 -2 1 4 4 5 -4 -4 4 -4 -3 -3 -6 -1 4 4 17 16 2 -3 8 1 0 3
4 -8 -2 0 4 1 -3 -1 -0 -0 -1 1 2 2 1 1 2 -0 1 -1 -4 -7 2 13 19 9 -0 -4 -1 6 1 -3 2 8 2 5 -2 -1 8 2 -1 -0 -1
-2 6 -4 4 2 1 0 -1 -1 1 1 -1 -1 -2 -1 -1 -1 -1 1 1 1 -1 -5 -5 -4 1 3 -1 5 -5 -6 1 -0 11 9 12 8 6 2 0 5 5 -2
7 3 -5 3 2 -0 1 5 1 1 0 3 -1 0 -1 0 0 -0 1 1 1 1 1 2 -0 -1 -3 -3 4 1 1 1 -0 1 -1 1 -1 -2 4 4 2 0 3
3 6 5 -3 -0 1 2 -2 2 -1 3 5 2 3 -0 -2 -0 -3 -3 -1 0 -2 -1 -0 2 1 3 3 -0 1 -1 3 5 1 3 0 2 1 -1 -1 5 5 -1
5 4 -5 3 7 10 5 -1 -1 -5 -1 4 5 3 1 2 2 -2 -1 0 1 -0 1 1 -0 -2 -2 3 -0 4 1 -3 -0 2 2 3 -1 1 4 4 3 7 4
1 2 2 4 7 5 4 -1 1 3 7 1 3 0 -0 -2 1 -1 -1 3 3 2 -1 1 -3 -1 4 -1 -3 -2 -0 8 5 -3 -0 -2 -3 -7 2 11 -1 1 3
1 5 8 2 7 8 1 -1 -1 -2 -3 -1 -6 0 2 4 1 -4 -2 -6 -1 2 -1 -3 -1 0 6 -4 -1 -1 -7 -2 -4 -1 -5 -8 -11 -0 1 -1 4 0 4
2 -3 -6 11 8 -2 -2 1 3 -1 -1 -2 1 -2 -0 -6 5 -1 -2 -1 4 7 -6 -3 -2 2 2 -3 -2 -2 -2 -2 3 8 3 -4 -1 -4 -2 -1 3 7 0
1 9 10 5 7 6 4 -1 -3 -2 3 -2 -2 5 2 1 -1 -5 -0 1 -2 -4 -3 -4 1 4 2 1 -3 -3 -0 -1 -3 0 3 -1 -2 -0 -2 1 2 -3 1
2 3 1 2 -1 1 0 -1 -2 -1 0 -2 1 0 1 1 1 -2 2 0 -1 1 2 0 1 -0 -1 -1 -1 1 -1 -1 -3 0 -1 0 -2 1 1 3 -1 -0 -1
-1 -1 -3 -2 -2 -2 -1 -2 -0 1 1 -1 0 2 -0 -1 -1 -0 -1 -0 0 0 -1 -2 -2 -3 -1 -1 -1 -5 -8 -3 -0 -1 -2 -1 1 -0 2 -4 -1 -0 -1
-2 -0 0 1 1 1 -1 -1 -1 -1 1 1 0 -0 -0 -1 -1 1 0 1 0 -1 -0 -1 -1 -1 -1 -1 -2 -1 -0 -2 -4 -2 -1 -1 -0 -2 -1 0 1 -2 0
2 -0 1 -2 -1 0 -1 -1 0 2 -0 -0 0 0 0 -0 0 -0 0 0 -1 0 -0 -0 -1 -2 -3 -3 -1 -0 1 0 -2 -2 -3 -1 -1 -1 0 -0 0 -2 2
-1 0 1 -0 -2 -5 -4 -3 -4 -3 2 2 -1 -1 -1 -1 -0 -1 -1 1 -1 -4 -2 -7 -2 -1 -1 -1 -2 -2 -2 -1 -1 -1 -2 -2 -2 -0 -1 -1 2 -0 3
-1 -0 0 1 0 -2 -2 -2 -2 -2 -2 -10 -6 -3 -1 -3 0 -1 -3 -1 -3 -1 -1 0 -3 -3 -3 1 2 1 -1 -3 -5 -2 -0 -0 -1 1 1 1 1 2 2
2 1 1 -3 -1 -1 1 -1 -0 3 -1 -4 4 -2 -3 -2 -3 -1 -1 -3 -1 -1 -2 1 -2 -5 -5 -7 -3 -2 -1 0 -3 2 1 0 0 1 1 1 2 1 0
0 -2 -6 -3 3 2 -4 1 -1 -0 -1 -4 -1 -2 -0 -1 -2 -0 -3 -1 -1 -1 -1 0 0 0 -2 -2 0 0 1 -2 -5 3 -0 1 1 -0 1 1 2 1 0
-1 4 -2 -2 2 -0 -0 -2 -0 -2 -5 -2 -6 -3 -2 -2 -4 -1 -1 -2 -1 -2 -2 -2 -1 -2 -0 -2 -3 -2 -1 -3 -0 -0 1 -1 -0 0 1 1 -1 -1 -3
-2 -2 1 -0 -10 -8 -5 -3 -2 -0 -0 -1 -2 1 -1 -1 -3 -2 -0 -0 -1 -3 -4 -3 -1 -1 -1 -2 -3 -2 -2 -4 -1 -1 -1 -0 0 1 1 -0 -1 -0 -2
2 8 -2 1 -0 -5 -7 -0 -3 -6 -1 1 0 -3 -1 -1 0 -0 -2 -2 -3 -4 -3 -3 -1 -3 -2 -1 -0 -1 -1 -1 -2 -1 -1 -1 -0 -0 -1 -0 1 -0 -1
-1 -3 -1 -1 16 3 2 4 -1 -2 -1 -4 -3 -1 -1 -2 -3 -2 -1 1 -1 -4 -2 -1 -6 -1 -2 -1 -2 -1 -2 -2 -2 -1 -1 -1 -1 -0 -0 -0 -0 -1 -0
Height
3140 3136 3132 3129 3127 3125 3123 3124 3123 3123 3122 3121 3121 3122 3124 3126 3129 3133 3136 3140 3145 3148 3151 3156 3156 3158 3162 3164 3163 3168 3169 3171 3171 3171 3171 3171 3171 3170 3170 3174 3173 3173 3173
3140 3137 3134 3131 3129 3128 3127 3125 3125 3125 3125 3123 3122 3123 3125 3127 3129 3132 3133 3137 3141 3144 3148 3151 3153 3153 3156 3159 3161 3163 3165 3166 3166 3167 3168 3169 3167 3167 3165 3170 3171 3171 3172
3140 3137 3136 3133 3131 3130 3129 3128 3128 3127 3125 3125 3125 3126 3127 3128 3131 3133 3135 3137 3139 3142 3144 3147 3148 3150 3151 3152 3155 3159 3160 3161 3161 3162 3163 3164 3165 3163 3165 3166 3169 3168 3169
3138 3137 3136 3134 3131 3131 3130 3129 3129 3128 3127 3126 3126 3127 3128 3130 3132 3132 3133 3133 3135 3137 3138 3141 3144 3146 3147 3149 3151 3153 3154 3155 3157 3157 3155 3158 3160 3160 3161 3163 3164 3165 3166
3137 3136 3135 3133 3131 3131 3130 3130 3129 3129 3128 3128 3128 3128 3128 3129 3130 3131 3132 3133 3133 3135 3137 3139 3141 3143 3145 3146 3148 3149 3150 3151 3151 3152 3152 3152 3151 3156 3158 3159 3159 3161 3161
3135 3132 3133 3133 3131 3130 3129 3129 3130 3129 3129 3128 3128 3127 3128 3129 3129 3130 3131 3132 3133 3134 3133 3135 3136 3138 3140 3142 3143 3143 3145 3146 3147 3145 3149 3150 3150 3151 3153 3153 3153 3155 3155
3132 3131 3130 3131 3131 3129 3128 3128 3129 3129 3128 3128 3128 3128 3128 3128 3128 3129 3130 3131 3132 3133 3133 3134 3135 3136 3137 3137 3138 3139 3141 3143 3145 3146 3146 3148 3148 3149 3150 3150 3150 3149 3149
3128 3128 3127 3128 3128 3127 3127 3127 3127 3129 3129 3129 3128 3128 3128 3128 3128 3128 3128 3129 3130 3131 3132 3133 3134 3133 3134 3135 3137 3138 3139 3140 3142 3142 3143 3144 3144 3144 3144 3144 3144 3144 3141
3123 3123 3123 3123 3124 3125 3126 3125 3127 3128 3129 3130 3129 3128 3128 3127 3127 3127 3128 3129 3129 3129 3130 3130 3130 3131 3132 3134 3134 3135 3136 3137 3138 3138 3138 3138 3138 3138 3138 3136 3137 3137 3134
3116 3118 3117 3119 3122 3123 3124 3125 3125 3126 3127 3128 3127 3126 3126 3126 3125 3125 3125 3125 3126 3126 3127 3128 3128 3129 3130 3131 3131 3132 3132 3132 3133 3132 3131 3130 3129 3129 3129 3127 3127 3126 3124
3111 3113 3115 3117 3119 3120 3121 3122 3122 3124 3123 3124 3124 3124 3123 3124 3123 3122 3122 3124 3124 3124 3124 3124 3125 3126 3126 3126 3127 3126 3126 3125 3124 3124 3122 3120 3117 3118 3118 3117 3114 3114 3113
3107 3108 3111 3114 3116 3117 3118 3119 3119 3120 3120 3120 3120 3119 3118 3120 3119 3120 3119 3119 3119 3119 3119 3119 3120 3121 3120 3120 3120 3119 3119 3117 3116 3113 3110 3110 3109 3110 3109 3106 3107 3104 3102
3105 3106 3108 3110 3113 3114 3115 3115 3115 3115 3116 3116 3115 3117 3116 3116 3116 3115 3115 3115 3114 3114 3114 3114 3115 3114 3112 3112 3111 3110 3109 3108 3106 3105 3102 3099 3099 3100 3100 3097 3097 3095 3094
3104 3105 3106 3108 3109 3109 3110 3111 3112 3112 3112 3113 3113 3113 3113 3113 3113 3112 3112 3111 3110 3109 3108 3108 3108 3107 3107 3105 3104 3104 3103 3101 3099 3098 3095 3093 3092 3091 3089 3089 3085 3084 3084
3103 3103 3104 3105 3106 3107 3107 3108 3109 3109 3110 3110 3109 3109 3110 3111 3110 3109 3108 3107 3106 3105 3105 3104 3103 3102 3100 3099 3098 3097 3095 3094 3092 3090 3088 3086 3083 3083 3080 3079 3077 3076 3075
3103 3103 3103 3104 3104 3105 3106 3106 3107 3108 3107 3107 3108 3107 3107 3107 3107 3106 3105 3104 3103 3102 3100 3099 3098 3096 3095 3093 3091 3088 3087 3087 3085 3083 3080 3078 3076 3074 3073 3071 3070 3069 3069
3103 3102 3102 3103 3103 3104 3105 3106 3106 3106 3106 3105 3105 3105 3104 3104 3102 3102 3101 3099 3097 3096 3095 3094 3092 3091 3089 3087 3085 3083 3081 3079 3078 3076 3074 3072 3070 3068 3067 3065 3064 3063 3062
3103 3103 3102 3102 3103 3104 3104 3104 3104 3105 3104 3104 3102 3101 3100 3099 3098 3097 3096 3094 3093 3091 3090 3089 3087 3086 3084 3082 3081 3079 3077 3074 3071 3070 3068 3066 3064 3063 3061 3060 3058 3057 3057
3103 3103 3103 3103 3103 3102 3103 3102 3101 3101 3101 3100 3099 3097 3096 3095 3094 3093 3092 3091 3090 3088 3086 3084 3084 3083 3081 3079 3076 3074 3071 3069 3067 3065 3062 3060 3059 3057 3056 3055 3054 3053 3053
3103 3104 3104 3104 3103 3103 3103 3102 3100 3099 3098 3094 3095 3096 3095 3094 3093 3091 3090 3089 3087 3086 3084 3082 3078 3077 3076 3075 3073 3070 3066 3064 3061 3060 3058 3056 3055 3054 3052 3051 3050 3049 3049
3104 3104 3104 3104 3104 3103 3104 3102 3101 3100 3097 3095 3096 3094 3093 3092 3090 3090 3089 3088 3087 3085 3083 3082 3079 3075 3073 3070 3069 3066 3063 3060 3057 3056 3055 3053 3052 3050 3049 3048 3047 3046 3045
3104 3103 3102 3103 3104 3102 3099 3099 3098 3097 3095 3094 3095 3094 3093 3092 3091 3089 3088 3086 3084 3081 3079 3078 3075 3072 3069 3067 3065 3062 3060 3057 3053 3053 3051 3049 3048 3047 3046 3046 3045 3044 3043
3104 3104 3102 3101 3101 3099 3098 3097 3096 3094 3092 3092 3092 3092 3092 3090 3089 3086 3084 3081 3079 3077 3075 3073 3071 3069 3066 3063 3062 3059 3057 3054 3051 3050 3048 3046 3045 3044 3043 3043 3043 3042 3040
3103 3102 3102 3098 3096 3097 3095 3094 3092 3092 3092 3092 3091 3091 3089 3087 3085 3082 3081 3078 3076 3073 3071 3069 3067 3065 3062 3060 3058 3056 3053 3051 3049 3047 3045 3044 3042 3041 3041 3040 3039 3039 3038
3103 3102 3100 3099 3097 3094 3092 3092 3092 3091 3091 3091 3089 3087 3086 3084 3082 3079 3077 3075 3073 3070 3067 3065 3063 3061 3059 3057 3055 3053 3050 3048 3046 3044 3043 3041 3040 3039 3039 3038 3037 3037 3037
3098 3096 3096 3096 3097 3094 3093 3092 3091 3089 3088 3087 3085 3083 3081 3079 3077 3075 3073 3072 3070 3067 3065 3063 3061 3059 3057 3056 3053 3051 3050 3048 3046 3044 3042 3041 3039 3039 3038 3037 3037 3036 3036